www.pogodaiklimat.ru

Погода и климат >> Архив погоды >> Вьетнам >> Монгцай


ПОГОДА в Монгцае

  • Прогноз погоды в Монгцае
  • Монитор погоды в Монгцае

АРХИВ ПОГОДЫ в Монгцае

Время (UTC), дата Ветер
(напр.,м/с)
 
Видим.   Явления Облачность Т
(С)
Тd
(С)
f
(%)
Тe
(С)
Тes
(С)
Комфортность P
(гПа)
Po
(гПа)
Тmin
(С)
Tmax
(С)
R
(мм)
R24
(мм)
S
(см)
18 13.09 штиль 0 20 км ясно +26.5 +24.7 90 +38 +38 очень
душно
1008.5 1007.8
21 13.09 штиль 0 20 км ясно +25.0 +23.2 90 +33 +33 очень
душно
1008.3 1007.6
00 14.09 штиль 0 20 км 3/3 1500 м
[Sc]
+26.5 +25.3 93 +38 +40 очень
душно
1009.1 1008.4 +24.9
03 14.09 штиль 0 20 км ясно +32.2 +22.6 57 +42 +63 опасность
перегрева
1010.2 1009.5
06 14.09 ЮЗ 3 20 км 8/0
[Cs]
+33.6 +22.7 53 +43 +56 опасность
перегрева
1007.9 1007.2
09 14.09 Ю 1 20 км ясно +32.6 +25.1 65 +47 +51 опасность
перегрева
1006.8 1006.1
12 14.09 СВ 2 20 км 5/5 1500 м
[Sc]
+30.1 +26.7 82 +47 +47 опасность
перегрева
1008.2 1007.5 +34.0
15 14.09 штиль 0 20 км ясно +27.0 +24.1 84 +37 +37 очень
душно
1009.1 1008.4
18 14.09 штиль 0 20 км 3/3 1500 м
[Sc]
+26.2 +23.4 85 +36 +36 очень
душно
1009.3 1008.6
21 14.09 штиль 0 20 км 3/3 1500 м
[Sc]
+25.4 +23.6 90 +35 +35 очень
душно
1008.1 1007.4
00 15.09 штиль 0 20 км 3/3 1500 м
[Sc]
+26.2 +24.7 91 +37 +39 очень
душно
1009.6 1008.9 +25.1
03 15.09 В 1 20 км 3/3 1500 м
[Sc]
+31.0 +23.1 63 +41 +54 опасность
перегрева
1009.9 1009.2
06 15.09 штиль 0 20 км 3/3 1500 м
[Sc]
+32.1 +25.2 67 +46 +63 опасность
перегрева
1007.8 1007.1
09 15.09 Ю 1 20 км 1/1 600 м
[Cu med, cong]
+31.4 +25.3 70 +45 +50 опасность
перегрева
1006.2 1005.5
12 15.09 штиль 0 20 км ясно +29.0 +26.4 86 +44 +44 опасность
перегрева
1007.2 1006.5 +32.3
15 15.09 штиль 0 20 км 3/3 1500 м
[Sc]
+28.0 +26.1 89 +42 +42 опасность
перегрева
1008.6 1007.9
18 15.09 штиль 0 20 км 5/5 1500 м
[Sc]
+27.4 +26.2 93 +41 +41 опасность
перегрева
1008.0 1007.3
21 15.09 штиль 0 20 км 6/6 1500 м
[Sc]
+26.6 +25.7 95 +39 +39 очень
душно
1007.9 1007.2
00 16.09 штиль 0 20 км 9/9 300 м
[Cu Sc]
+26.5 +25.5 94 +39 +39 очень
душно
1009.2 1008.5 +26.3
03 16.09 штиль 0 20 км 9/9 450 м
[Cu Sc]
+29.7 +26.7 84 +46 +48 опасность
перегрева
1010.2 1009.5
06 16.09 штиль 0 20 км 8/0
[Cs]
+32.8 +24.9 63 +46 +66 опасность
перегрева
1007.0 1006.3
09 16.09 штиль 0 20 км 3/3 600 м
[Cu med, cong]
+32.2 +24.0 62 +44 +48 опасность
перегрева
1005.8 1005.1
12 16.09 штиль 0 20 км ясно +29.0 +25.1 80 +42 +42 опасность
перегрева
1006.0 1005.3 +33.8
15 16.09 штиль 0 20 км 8/8 1500 м
[Sc]
+28.2 +26.2 89 +43 +43 опасность
перегрева
1008.0 1007.3
18 16.09 штиль 0 20 км 9/9 450 м
[Cu Sc]
+27.7 +26.3 92 +42 +42 опасность
перегрева
1008.3 1007.6
21 16.09 штиль 0 20 км 9/9 300 м
[Cu Sc]
+27.0 +25.7 93 +40 +40 очень
душно
1008.2 1007.5
00 17.09 З 2 10 км гроза без осадков {ливн. осадки} туман 10/10
[Cb cap]
+24.8 +23.6 93 +34 +34 очень
душно
1010.7 1010.0 +24.8 0.1
03 17.09 штиль 0 20 км {гроза, ливн. осадки} 9/9 450 м
[Cu Sc]
+28.4 +24.9 81 +41 +43 опасность
перегрева
1011.6 1010.9
06 17.09 штиль 0 20 км {гроза} 4/4 800 м
[Cu med, cong]
+33.6 +25.9 64 +49 +63 опасность
перегрева
1008.3 1007.6 0.2
09 17.09 С 1 20 км 8/8 800 м
[Cb cap]
+28.8 +24.2 76 +40 +41 очень
душно
1008.2 1007.5
12 17.09 штиль 0 20 км 5/5 1500 м
[Sc]
+27.2 +23.5 80 +37 +37 очень
душно
1008.7 1008.0 +34.0 0.2
15 17.09 штиль 0 20 км 5/5 1500 м
[Sc]
+26.2 +23.5 85 +36 +36 очень
душно
1010.6 1009.9
18 17.09 штиль 0 20 км 8/8 1500 м
[Sc]
+26.0 +24.4 91 +36 +36 очень
душно
1010.6 1009.9
21 17.09 штиль 0 20 км 8/8 1500 м
[Sc]
+25.8 +24.0 90 +36 +36 очень
душно
1010.2 1009.5
00 18.09 штиль 0 20 км 8/8 800 м
[Cu Sc]
+26.5 +25.2 93 +38 +39 очень
душно
1012.0 1011.3 +25.3
03 18.09 В 2 20 км 8/8 1500 м
[Sc]
+31.0 +23.8 66 +43 +46 опасность
перегрева
1013.1 1012.4
06 18.09 штиль 0 20 км 6/6 1500 м
[Sc]
+32.6 +24.8 64 +46 +55 опасность
перегрева
1010.7 1010.0
09 18.09 штиль 0 20 км 9/9 600 м
[Cb cap]
+31.7 +26.4 74 +48 +49 опасность
перегрева
1009.6 1008.9
12 18.09 штиль 0 10 км {гроза, ливн. осадки} 4/4
[Sc]
+25.2 +24.6 96 +35 +35 очень
душно
1012.2 1011.5 +34.1 17
15 18.09 штиль 0 4000 м ливневой дождь {гроза} 10/10 450 м
[Cb cap]
+25.0 +24.7 98 +35 +35 очень
душно
1013.4 1012.7
18 18.09 штиль 0 10 км в посл. час ливневой дождь {гроза} 10/10 300 м
[Cb cap]
+25.5 +24.7 95 +36 +36 очень
душно
1011.9 1011.2 9
21 18.09 штиль 0 10 км 10/10 300 м
[Cu Sc]
+25.6 +25.1 97 +37 +37 очень
душно
1012.1 1011.4
00 19.09 В 1 20 км 8/8 300 м
[Cu Sc]
+26.5 +24.9 91 +38 +38 очень
душно
1013.7 1013.0 +24.5 9
03 19.09 СВ 3 20 км 9/9 300 м
[Cu Sc]
+29.1 +24.6 77 +41 +43 опасность
перегрева
1014.4 1013.7
06 19.09 В 2 20 км 8/8 600 м
[Cu Sc]
+31.4 +25.0 69 +45 +48 опасность
перегрева
1012.2 1011.5 9
09 19.09 штиль 0 20 км 8/8 800 м
[Cu Sc]
+31.1 +24.5 68 +44 +45 опасность
перегрева
1010.3 1009.6
12 19.09 штиль 0 20 км 8/8 450 м
[Cu Sc]
+27.4 +25.2 88 +40 +40 очень
душно
1011.1 1010.4 +32.6
15 19.09 штиль 0 20 км ясно +26.0 +25.0 94 +37 +37 очень
душно
1012.3 1011.6
18 19.09 штиль 0 20 км 3/3 1500 м
[Sc]
+26.0 +25.4 97 +38 +38 очень
душно
1011.8 1011.1
21 19.09 штиль 0 20 км ясно +24.6 +23.4 93 +33 +33 очень
душно
1010.8 1010.1
00 20.09 штиль 0 20 км ясно +25.7 +24.9 95 +36 +39 очень
душно
1011.8 1011.1 +23.6
03 20.09 СВ 3 20 км ясно +31.3 +23.0 61 +41 +54 опасность
перегрева
1011.9 1011.2
06 20.09 В 2 20 км ясно +33.6 +23.5 56 +45 +62 опасность
перегрева
1009.5 1008.8
09 20.09 З 1 20 км 8/8 600 м
[Cu med, cong]
+32.0 +22.7 58 +42 +43 опасность
перегрева
1008.3 1006.7
12 20.09 СВ 1 20 км ясно +28.8 +22.3 68 +38 +38 очень
душно
1009.8 1009.1 +33.9
15 20.09 штиль 0 20 км ясно +26.2 +23.1 83 +35 +35 очень
душно
1011.6 1010.9

 

Местоположение метеостанции Монгцай (Вьетнам): широта 21.52 долгота 107.96 высота над уровнем моря 7 м.

В архиве по умолчанию представлена погода в Монгцае за последнюю неделю. Архивные данные за месяц целиком и за предыдущие месяцы, начиная с января 2011 года, Вы можете получить, выбрав интересующий диапазон дат из раскрывающегося списка и нажав кнопку "Ввод!".


*Определитесь, кто Вы:
робот инопланетянин человек

Внимание! Время в таблицах - всемирное. Для получения местного времени необходимо прибавить поправку, которая равна 7 ч.

Смотрите также архив погоды в соседних городах и на ближайших метеорологических станциях:

Погода в Циньчжоу (Гуанси-Чжуанский автономный район, Китай) (82 км)
Погода в Бэйхае (Гуанси-Чжуанский автономный район, Китай) (118 км)
Погода в Наньнине (Гуанси-Чжуанский автономный район, Китай) (126 км)
Погода в Лангсоне (Вьетнам) (129 км)
Погода в Лончжоу (Гуанси-Чжуанский автономный район, Китай) (157 км)
Погода на Бач Лонг Ви (Вьетнам) (157 км)
Погода в Пхульене (Вьетнам) (160 км)
Погода в Каобанге (Вьетнам) (218 км)
Погода в Намдине (Вьетнам) (224 км)
Погода в Ханое (Вьетнам) (230 км)

Пояснения к столбцам:

Ветер - указаны скорость ветра в м/с - средняя за 10 мин, порывы в срок и между сроками (в фигурных скобках) и направление, откуда дует ветер: С - северный, СВ - северо-восточный, В - восточный, ЮВ - юго-восточный, Ю - южный, ЮЗ - юго-западный, З - западный, СЗ - северо-западный.
Видимость - горизонтальная дальность видимости в метрах или километрах. При видимости от 1 до 10 км при отсутствии осадков обычно наблюдается дымка, при ухудшении видимости до 1 км и менее - туман. В сухую погоду видимость может ухудшаться дымом, пылью или мглою.
Явления - указаны атмосферные явления, наблюдавшиеся в срок или в последний час перед сроком; фигурными скобками обозначены явления, наблюдавшиеся между сроками (за 1-3 часа до срока); квадратными скобками обозначены град или гололедные отложения с указанием их диаметра в мм.
Облачность - указаны через наклонную черту общая и нижняя облачность в баллах и высота нижней границы облаков в метрах; квадратными скобками обозначены формы облаков: Ci - перистые, Cs - перисто-слоистые, Cc - перисто-кучевые, Ac - высококучевые, As - высокослоистые, Sc - слоисто-кучевые, Ns - слоисто-дождевые, Cu - кучевые, Cb - кучево-дождевые. Подробнее классификацию облаков см. в Атласе облаков (PDF).
T - Температура воздуха - температура, измеренная на высоте 2 м над землей.
Td - Температура точки росы - температура, при понижении до которой содержащийся в воздухе водяной пар достигнет насыщения.
f - Относительная влажность воздуха - влажноcть воздуха, измеренная на высоте 2 м над землей.
Te - Эффективная температура - температура, которую ощущает одетый по сезону человек в тени. Характеристика душности погоды. При расчете учитывается влияние влажности воздуха и скорости ветра на теплоощущения человека.
Tes - Эффективная температура на солнце - температура, которую ощущает человек, с поправкой на солнечный нагрев. Характеристика знойности погоды. Зависит от высоты солнца над горизонтом, облачности и скорости ветра. Ночью, в пасмурную погоду, а также при ветре 12 м/с и более поправка равна нулю.
P - Атмосферное давление - приведенное к уровню моря атмосферное давление.
Po - Атмосферное давление - измеренное на уровне метеостанции атмосферное давление.
Tmin - Минимальная температура - минимум температуры воздуха на высоте 2 м над землей.
Tmax - Максимальная температура - максимум температуры воздуха на высоте 2 м над землей.
R - Количество осадков - Количество выпавших осадков за период времени, мм. При наведении курсора мыши на число - период времени, за который выпало указанное количество осадков.
R24 - Количество осадков - Количество выпавших осадков за 24 часа, мм.
S - Снежный покров - Высота снежного покрова, см. При наведении курсора мыши на число - состояние снежного покрова и степень покрытия местности в баллах.